Preview of NWS' New Version of Forecast
This preview is not operational and should not be used for support decisions.

Regional Weather Roundup (RWR)

Issued by National Weather Service (NWS)

                            
000
ASUS43 KBIS 211410
RWRND 

NORTH DAKOTA REGIONAL WEATHER ROUNDUP
NATIONAL WEATHER SERVICE BISMARCK ND
900 AM CDT SUN APR 21 2019

NOTE: "FAIR" INDICATES FEW OR NO CLOUDS BELOW 12,000 FEET WITH NO
SIGNIFICANT WEATHER AND/OR OBSTRUCTIONS TO VISIBILITY.


NDZ001>003-009>011-017-211500-
NORTHWEST NORTH DAKOTA
  
CITY           SKY/WX    TMP DP  RH WIND       PRES   REMARKS
WILLISTON      CLOUDY    48  43  82 CALM      30.03R                  
MINOT          CLOUDY    48  43  82 CALM      29.99R                  
MINOT AFB      CLOUDY    46  45  95 CALM      29.98R                  
$$
 
NDZ018>021-031>035-040>046-211500-
SOUTHWEST NORTH DAKOTA
  
CITY           SKY/WX    TMP DP  RH WIND       PRES   REMARKS
BISMARCK       PTSUNNY   49  41  74 N10       29.97R                  
DICKINSON      LGT RAIN  47  43  86 N15       29.96R                  
GARRISON         N/A     46  44  93 N6        29.99R                  
HETTINGER ARPT LGT RAIN  45  42  89 NE15      29.93R FOG              
$$
 
NDZ004>008-012>016-024-026-027-054-211500-
NORTHEAST NORTH DAKOTA
  
CITY           SKY/WX    TMP DP  RH WIND       PRES   REMARKS
GRAND FORKS    PTSUNNY   51  41  68 NE7       29.94R                  
GRND FRKS AFB  MOSUNNY   51  44  77 NE6       29.96R                  
DEVILS LAKE    CLOUDY    47  39  74 NE9       29.98R                  
$$
 
NDZ022-023-025-028>030-036>039-047>053-211500-
SOUTHEAST NORTH DAKOTA
  
CITY           SKY/WX    TMP DP  RH WIND       PRES   REMARKS
FARGO          CLOUDY    50  46  86 NE12      29.89R                  
JAMESTOWN      MOSUNNY   48  44  86 NE12      29.91R                  
$$